Regional Weather Roundup
Issued by NWS

Home | Current Version | Previous Version | Text Only | Print | Product List | Glossary Off
Versions: 1 2 3 4 5 6 7 8 9 10 11 12 13 14 15 16 17 18 19 20 21 22 23 24 25 26 27 28 29 30 31 32 33 34 35 36 37 38 39 40 41 42 43 44 45 46 47 48 49 50

000
ASUS45 KBOU 210610
RWRCO

WEATHER ROUNDUP FOR COLORADO
NATIONAL WEATHER SERVICE DENVER/BOULDER CO
1100 PM MST TUE FEB 20 2018

NOTE: "FAIR" INDICATES FEW OR NO CLOUDS BELOW 12000 FEET WITH NO
SIGNIFICANT WEATHER AND/OR OBSTRUCTIONS TO VISIBILITY.

COZ001>005-013-030-031-210700-
...NORTHWEST COLORADO...

CITY           SKY/WX    TMP DP  RH WIND       PRES   REMARKS
CRAIG          FAIR     -11 -16  78 CALM      30.12R
HAYDEN         MOCLDY     6  -1  73 E12       30.10R WCI  -9
MEEKER         FAIR       0  -5  79 NE6       30.09R WCI -12
RANGELY        FAIR       9   1  71 SE7       30.15R WCI  -3
RABBIT EARS PA FAIR      -4  -8  84 SW10      29.89R WCI -21
STEAMBOAT SPGS FAIR       0  -4  84 CALM      30.07F
WALDEN         FAIR      -2  -9  71 SE6       30.02R WCI -14
$$

COZ006>008-011-210700-
...WEST CENTRAL VALLEYS...

CITY           SKY/WX    TMP DP  RH WIND       PRES   REMARKS
GRAND JUNCTION FAIR      23  18  81 E14       30.13R WCI  11
MONTROSE       MOCLDY    14  10  84 SE9       30.15S WCI   2
EAGLE          CLOUDY    14   8  77 E3        30.12R
RIFLE          FAIR      11   3  70 SE5       30.14R WCI   3
DELTA          MOCLDY    20  11  66 CALM      30.16R
NUCLA          FAIR      18  12  79 E12       30.14S WCI   5
$$

COZ017>023-064>068-210700-
...SOUTHWEST COLORADO...

CITY           SKY/WX    TMP DP  RH WIND       PRES   REMARKS
DURANGO        FAIR      13   8  81 N5        30.10R WCI   5
CORTEZ         FAIR      12   8  84 E5        30.11R WCI   4
PAGOSA SPRINGS FAIR       6   4  91 CALM      30.09R
TELLURIDE      FAIR       9  -4  54 CALM      30.02R
WOLF CREEK PAS CLOUDY    -2  -4  92 S16G26    29.94S WCI -23
$$

COZ009-010-012-014-032>034-037-058>063-210700-
...CENTRAL COLORADO...

CITY           SKY/WX    TMP DP  RH WIND       PRES   REMARKS
ASPEN          CLOUDY     7  -2  66 S7        30.05R WCI  -5
BUENA VISTA    CLOUDY    11   2  65 CALM      30.05R
COPPER MTN     FAIR       0  -9  65 S7G18     29.86R WCI -13
BERTHOUD PASS  FAIR      -8 -18  59 W14G25    29.81S WCI -28
COTTONWOOD PAS CLOUDY    14   0  52 W3        29.97R
GUNNISON       FAIR       6   1  80 N6        30.08R WCI  -4
GRANBY         CLOUDY     2  -2  83 CALM      30.04R FOG
KREMMLING      CLOUDY    14   9  79 CALM      30.08S
LEADVILLE      FAIR      -9 -14  78 NE5       29.94R WCI -20
MONARCH PASS   MOCLDY     0  -6  78 SW23G32   29.98S WCI -24
SALIDA         FAIR      14   8  77 SE6       30.15R WCI   5
SUNLIGHT       FAIR      -4  -8  84 SW12G18   29.95S WCI -22
WILKERSON PASS FAIR       0  -8  71 SW10G16   29.93R WCI -17
$$

COZ069>075-210700-
...SAN LUIS VALLEY/SANGRE DE CRISTO MOUNTAINS...

CITY           SKY/WX    TMP DP  RH WIND       PRES   REMARKS
ALAMOSA        FAIR       8   1  73 SW7       30.07R WCI  -3
DEL NORTE      MOCLDY     7  -3  64 W9        30.07R WCI  -7
LA VETA PASS   CLOUDY     9   1  72 S14G33    30.10S WCI  -8
SAGUACHE       FAIR       7   1  78 NW8       30.08R WCI  -6
$$

COZ035-036-038>040-210700-
...NORTHERN COLORADO FRONT RANGE...

CITY           SKY/WX    TMP DP  RH WIND       PRES   REMARKS
DENVER INTL AP MOCLDY     7   3  84 SE6       30.15S WCI  -3
AURORA         MOCLDY     7   4  86 E5        30.14S WCI  -2
FRONT RANGE AP MOCLDY    12   8  85 W3        30.16S
ERIE MUNI ARPT FAIR      -2  -5  85 CALM      30.25R
BOULDER MUN AP FAIR       7   5  92 CALM      30.18R
CENTENNIAL     MOCLDY    12   9  87 NW3       30.13R
BROOMFIELD     FAIR       9   5  85 CALM      30.16R
FORT COLLINS   MOCLDY     0  -4  83 CALM      30.21R
LONGMONT       FAIR       1  -4  80 W3        30.23R
$$

COZ041-046-047-076>085-087-088-210700-
...PIKES PEAK/PALMER DIVIDE AND SOUTHERN FOOTHILLS...

CITY           SKY/WX    TMP DP  RH WIND       PRES   REMARKS
COLO. SPRINGS  FLURRIES  12   9  87 S9        30.17S WCI   0
A. F. ACADEMY  CLOUDY    12   9  85 SE13      30.13S WCI  -3
SCHRIEVER AFB  NOT AVBL
CHEYENNE MTN   LGT SNOW   9   7  92 S7        30.06R WCI  -2
ELLICOTT         N/A    N/A N/A N/A S3          N/A
FALCON         LGT SNOW  10   8  92 MISG      30.14R
FORT CARSON    CLOUDY    14   9  79 S9        30.17S WCI   2
LIMON          FAIR      -4  -7  87 SE3       30.22R
MONUMENT HILL  FAIR       9   3  78 S14       30.09S WCI  -8
CANON CITY     LGT SNOW  19  12  73 CALM      30.21S
WALSENBURG     NOT AVBL
TRINIDAD       FAIR      12   8  84 NW5       30.20R WCI   4
$$

COZ042>045-048>051-090-091-210700-
...NORTHEAST COLORADO...

CITY           SKY/WX    TMP DP  RH WIND       PRES   REMARKS
GREELEY ARPT   FAIR     -12 -17  78 N8        30.25R WCI -29
AKRON          FAIR       4  -3  73 S7        30.24R WCI  -8
BURLINGTON     FAIR      -6 -10  83 W10       30.29R WCI -24
WRAY           CLOUDY     9   1  72 W5        30.33S WCI   0
YUMA           NOT AVBL
STERLING       FAIR       0  -4  85 CALM      30.28R
HOLYOKE        FAIR       5  -2  72 W6        30.33R WCI  -6
FORT MORGAN    MOCLDY     6  -1  71 CALM      30.25R
$$

COZ086-089-092>099-210700-
...SOUTHEAST COLORADO...

CITY           SKY/WX    TMP DP  RH WIND       PRES   REMARKS
PUEBLO         MOCLDY    15   8  73 E6        30.27R WCI   6
LA JUNTA       FAIR       9   3  77 N5        30.30R WCI   1
LAMAR          FAIR      11   1  64 NW3       30.32R
SPRINGFIELD      N/A      6  -1  73 NW7       30.27R WCI  -6
$$



USA.gov is the U.S. government's official web portal to all federal, state and local government web resources and services.